www.pogodaiklimat.ru

Погода и климат >> Архив погоды >> Египет >> Kosseir


ПОГОДА в Kosseir

  • Прогноз погоды в Kosseir
  • Монитор погоды в Kosseir
  • Климат города

АРХИВ ПОГОДЫ в Kosseir

Время (UTC), дата Ветер
(напр.,м/с)
 
Видим.   Явления Облачность Т
(С)
Тd
(С)
f
(%)
Тe
(С)
Тes
(С)
Комфортность P
(гПа)
Po
(гПа)
Тmin
(С)
Tmax
(С)
R
(мм)
R24
(мм)
S
(см)
21 10.10 С 3 10 км ясно +25.2 +13.1 47 +27 +27 жарко 1011.8 1012.0
00 11.10 С 7 10 км ясно +25.4 +13.3 47 +27 +27 жарко 1011.8 1012.0
03 11.10 С 6 10 км ясно +23.7 +14.4 56 +26 +26 жарко 1012.0 1012.0
06 11.10 С 8 10 км ясно +25.5 +14.6 51 +28 +29 жарко 1012.9 1013.0 +22.9
09 11.10 С 7 10 км ясно +27.2 +16.5 52 +31 +35 душно 1013.0 1013.0
12 11.10 С 6 10 км ясно +28.4 +19.9 60 +35 +39 очень
душно
1011.1 1011.0
18 11.10 С 3 10 км ясно +25.7 +17.4 60 +30 +30 душно 1011.9 1012.0 +28.4
21 11.10 штиль 0 10 км ясно +24.4 +13.6 51 +27 +27 жарко 1012.1 1012.0
00 12.10 С 3 10 км ясно +24.5 +12.4 47 +26 +26 жарко 1010.9 1011.0
03 12.10 СЗ 3 10 км ясно +23.0 +14.3 58 +27 +27 душно 1011.6 1012.0
06 12.10 С 7 10 км ясно +25.5 +14.9 52 +28 +30 жарко 1012.8 1013.0 +22.6
09 12.10 С 7 10 км ясно +26.8 +16.7 54 +30 +35 душно 1012.8 1013.0
12 12.10 С 6 10 км ясно +27.7 +19.5 61 +33 +38 очень
душно
1011.2 1011.0
15 12.10 С 3 10 км ясно +26.5 +19.1 64 +32 +32 очень
душно
1011.7 1012.0
18 12.10 штиль 0 10 км ясно +24.9 +18.6 68 +30 +30 душно 1013.1 1013.0 +28.2
21 12.10 штиль 0 10 км ясно +23.4 +15.7 62 +28 +28 душно 1013.1 1013.0
00 13.10 СЗ 2 10 км ясно +23.5 +11.2 46 +25 +25 комфорт 1012.4 1012.0
03 13.10 СЗ 3 10 км ясно +23.0 +12.0 50 +26 +26 жарко 1012.4 1012.0
06 13.10 С 8 10 км ясно +25.2 +15.0 53 +28 +29 жарко 1013.7 1014.0 +22.6
09 13.10 С 6 10 км ясно +26.9 +16.5 53 +30 +36 душно 1013.4 1013.0
12 13.10 С 6 10 км ясно +27.5 +18.2 57 +32 +36 очень
душно
1011.5 1012.0
15 13.10 С 4 10 км ясно +26.1 +17.7 60 +30 +30 душно 1011.6 1012.0
18 13.10 штиль 0 10 км ясно +24.8 +16.2 59 +28 +28 жарко 1013.0 1013.0 +27.9
21 13.10 штиль 0 10 км ясно +23.1 +14.4 58 +27 +27 душно 1013.0 1013.0
00 14.10 штиль 0 10 км ясно +22.5 +10.0 45 +24 +24 комфорт 1012.2 1012.0
03 14.10 СЗ 2 10 км ясно +23.2 +12.5 51 +26 +26 жарко 1012.3 1012.0
06 14.10 С 7 10 км ясно +26.0 +13.8 47 +28 +29 жарко 1013.3 1013.0 +22.2
09 14.10 С 6 10 км ясно +27.1 +14.8 47 +30 +36 душно 1013.1 1013.0
12 14.10 С 5 10 км ясно +26.9 +18.7 61 +32 +37 очень
душно
1011.5 1012.0
15 14.10 С 2 10 км ясно +25.9 +18.6 64 +31 +31 очень
душно
1011.5 1012.0
21 14.10 штиль 0 10 км ясно +23.1 +15.4 62 +27 +27 душно 1012.9 1013.0
00 15.10 штиль 0 10 км ясно +23.3 +12.0 49 +26 +26 жарко 1011.9 1012.0
03 15.10 штиль 0 10 км ясно +22.4 +10.8 48 +24 +24 комфорт 1012.8 1013.0
06 15.10 С 9 10 км ясно +25.4 +15.3 54 +28 +29 жарко 1014.1 1014.0 +22.1
09 15.10 С 7 10 км ясно +26.8 +14.5 47 +29 +33 жарко 1013.9 1014.0
12 15.10 С 5 10 км ясно +26.8 +17.3 56 +31 +36 душно 1012.4 1012.0
15 15.10 С 3 10 км ясно +25.9 +17.0 58 +30 +30 душно 1012.4 1012.0
18 15.10 штиль 0 10 км ясно +24.3 +17.3 65 +28 +28 душно 1013.4 1013.0 +27.8
21 15.10 штиль 0 10 км ясно +22.6 +14.4 60 +26 +26 жарко 1013.7 1014.0
00 16.10 штиль 0 10 км ясно +21.8 +12.4 55 +24 +24 комфорт 1013.0 1013.0
03 16.10 штиль 0 10 км ясно +19.4 +12.9 66 +21 +21 комфорт 1013.6 1014.0
06 16.10 С 5 10 км ясно +25.2 +11.0 41 +26 +28 жарко 1014.9 1015.0 +18.6
09 16.10 С 8 10 км ясно +27.1 +14.5 46 +30 +32 душно 1014.5 1015.0
12 16.10 С 6 10 км ясно +26.8 +17.0 55 +31 +35 душно 1012.7 1013.0
15 16.10 С 5 10 км ясно +25.9 +16.4 56 +29 +30 душно 1013.0 1013.0
18 16.10 С 1 10 км ясно +24.7 +16.1 59 +28 +28 душно 1014.3 1014.0 +27.5
21 16.10 С 3 10 км ясно +24.4 +10.7 42 +26 +26 жарко 1013.9 1014.0
00 17.10 С 4 10 км ясно +23.8 +9.4 40 +25 +25 комфорт 1012.9 1013.0
03 17.10 С 3 10 км ясно +22.5 +10.0 45 +24 +24 комфорт 1013.1 1013.0
06 17.10 С 9 10 км ясно +24.5 +14.0 52 +27 +27 жарко 1014.3 1014.0 +21.1
12 17.10 С 6 10 км ясно +26.7 +17.5 57 +31 +35 душно 1012.6 1013.0

 

Местоположение метеостанции Kosseir (Египет): широта 26.13 долгота 34.15 высота над уровнем моря 11 м.

В архиве по умолчанию представлена погода в Kosseir за последнюю неделю. Архивные данные за месяц целиком и за предыдущие месяцы, начиная с января 2011 года, Вы можете получить, выбрав интересующий диапазон дат из раскрывающегося списка и нажав кнопку "Ввод!".

Внимание! Время в таблицах - всемирное. Для получения местного времени необходимо прибавить поправку, которая в Kosseir равна 2 ч.

Смотрите также архив погоды в соседних городах и на ближайших метеорологических станциях:

Погода в Hurghada (Египет) (121 км)
Погода в South Of Valley University (Египет) (140 км)
Погода в Luxor (Египет) (154 км)
Погода в Al-Wajh (Саудовская Аравия) (233 км)
Погода в El Tor (Египет) (239 км)
Погода в Asswan (Египет) (277 км)
Погода в Abou Redis (Египет) (323 км)
Погода в Asyut (Египет) (328 км)
Погода в Tabuk (Саудовская Аравия) (348 км)
Погода в Shalatin (Египет) (364 км)

Пояснения к столбцам:

Ветер - указаны скорость ветра в м/с - средняя за 10 мин, порывы в срок и между сроками (в фигурных скобках) и направление, откуда дует ветер: С - северный, СВ - северо-восточный, В - восточный, ЮВ - юго-восточный, Ю - южный, ЮЗ - юго-западный, З - западный, СЗ - северо-западный.
Видимость - горизонтальная дальность видимости в метрах или километрах. При видимости от 1 до 10 км при отсутствии осадков обычно наблюдается дымка, при ухудшении видимости до 1 км и менее - туман. В сухую погоду видимость может ухудшаться дымом, пылью или мглою.
Явления - указаны атмосферные явления, наблюдавшиеся в срок или в последний час перед сроком; фигурными скобками обозначены явления, наблюдавшиеся между сроками (за 1-3 часа до срока); квадратными скобками обозначены град или гололедные отложения с указанием их диаметра в мм.
Облачность - указаны через наклонную черту общая и нижняя облачность в баллах и высота нижней границы облаков в метрах; квадратными скобками обозначены формы облаков: Ci - перистые, Cs - перисто-слоистые, Cc - перисто-кучевые, Ac - высококучевые, As - высокослоистые, Sc - слоисто-кучевые, Ns - слоисто-дождевые, Cu - кучевые, Cb - кучево-дождевые. Подробнее классификацию облаков см. в Атласе облаков (PDF).
T - Температура воздуха - температура, измеренная на высоте 2 м над землей.
Td - Температура точки росы - температура, при понижении до которой содержащийся в воздухе водяной пар достигнет насыщения.
f - Относительная влажность воздуха - влажноcть воздуха, измеренная на высоте 2 м над землей.
Te - Эффективная температура - температура, которую ощущает одетый по сезону человек в тени. Характеристика душности погоды. При расчете учитывается влияние влажности воздуха и скорости ветра на теплоощущения человека.
Tes - Эффективная температура на солнце - температура, которую ощущает человек, с поправкой на солнечный нагрев. Характеристика знойности погоды. Зависит от высоты солнца над горизонтом, облачности и скорости ветра. Ночью, в пасмурную погоду, а также при ветре 12 м/с и более поправка равна нулю.
P - Атмосферное давление - приведенное к уровню моря атмосферное давление.
Po - Атмосферное давление - измеренное на уровне метеостанции атмосферное давление.
Tmin - Минимальная температура - минимум температуры воздуха на высоте 2 м над землей.
Tmax - Максимальная температура - максимум температуры воздуха на высоте 2 м над землей.
R - Количество осадков - Количество выпавших осадков за период времени, мм. При наведении курсора мыши на число - период времени, за который выпало указанное количество осадков.
R24 - Количество осадков - Количество выпавших осадков за 24 часа, мм.
S - Снежный покров - Высота снежного покрова, см. При наведении курсора мыши на число - состояние снежного покрова и степень покрытия местности в баллах.